« Back
NWS Peachtree City, Ga » Text Product » CSG Terminal Aerodrome Forecast


Printer-friendly Version
Current Version              Previous Versions:   1  2  3  4  5  6  7  8  9  

Terminal Aerodrome Forecast

456
FTUS42 KFFC 191136
TAFCSG
TAF
KCSG 191136Z 1912/2012 34003KT P6SM SCT150 BKN250
     FM191600 02003KT P6SM OVC100
     FM200200 04005KT P6SM VCSH BKN040 OVC080
     FM200700 06004KT P6SM -SHRA OVC035=

USA.gov is the U.S. government's official web portal to all federal, state and local government web resources and services.